Zurück zum Katalog

CZ-6A DEB

AktivPO
NORAD 60793·DEBRIS·🇨🇳 China

Gestartet Aug 6, 2024 von Taiyuan Satellite Launch Center

Loading…

Nächste Überflüge (nächste 24 Stunden)

TLE

AktuellSource: Space-Track

Epoche: Sep 14, 2026, 10:47 UTC

1 60793U 24140FU  26257.44933200  .00000077  00000-0  32879-4 0  9990
2 60793  89.0245 268.0490 0064833 270.9949  88.3810 14.14284070107892

Verfolge CZ-6A DEB in Echtzeit mit AllMySat

Download on the App Store